"Pseudo-MPEC" for P10U3Lr

Created 2019 Nov 13 10:07:10 UT using Find_Orb

Click here for an explanation of pseudo-MPECs

 
 Astrometry: 
     P10U3Lr  C2019 11 03`f2dK292=5h_MQOHtU^s1kZpwAstrometry'HuBredacted;B5b/F51
     P10U3Lr  C2019 11 03yhu89MCRUtclick[#mV2+)Cv=herenMx#A98)HlqC*L62IBgforwF51
     P10U3Lr  C2019 11 03$Dj4WOqT%4H-3e0explanation.XHk:c#yi:e8\R5:PZ(acypihrF51

Station data:
(F51) Pan-STARRS 1, Haleakala  (N20.707235 W156.255910)  US/Hawaii.
   Observers N. Primak, A. Schultz, S. Watters, J. Thiel, T. Goggia. Measurer
   PS1 Science Consortium. 1.8-m Ritchey-Chrétien + CCD.

Orbital elements:  P10U3Lr
   Perihelion 2019 Jan 8.310459 +/- 322 TT =  7:27:03 (JD 2458491.810459)
Epoch 2019 Nov  4.0 TT = JDT 2458791.5   Earth MOID: 0.3479   Ma: 0.0234
M 119.12989516 +/- 100              (J2000 ecliptic)          AutoNEOCP
n   0.39751102 +/- 0.24             Peri.  136.44104 +/- 53
a   1.83190634 +/- 0.738            Node   128.51179 +/- 60
e   0.2842826 +/- 0.273             Incl.   20.83883 +/- 52
P   2.48/905.62d           H 19.2   G  0.15   U 11.8  SR
q 1.31112719 +/- 1.07    Q 2.35268549 +/- 28.8
From 3 observations 2019 Nov. 3 (38.1 min); mean residual 0".05
Residuals in arcseconds: 
191103 F51  .04+  .04+    191103 F51  .07-  .07-    191103 F51  .03+  .04+    

Ephemerides (geocentric):
Date (UTC) HH   RA              Dec         delta   r     elong  mag " sig PA
---- -- -- --  -------------   -----------  ------ ------ -----  --- ---- ---
2019 11 13 10  03 52 30.641   -16 18 37.75  1.3153 2.1969 144.4 22.4  28d  11
2019 11 13 11  03 52 27.301   -16 18 41.64  1.3154 2.1969 144.4 22.4  28d  11
2019 11 13 12  03 52 23.961   -16 18 45.49  1.3154 2.1970 144.4 22.4  28d  11
2019 11 13 13  03 52 20.620   -16 18 49.29  1.3155 2.1971 144.4 22.4  28d  11
2019 11 13 14  03 52 17.279   -16 18 53.04  1.3156 2.1972 144.4 22.4  28d  11
2019 11 13 15  03 52 13.937   -16 18 56.75  1.3157 2.1973 144.4 22.4  28d  11
2019 11 13 16  03 52 10.595   -16 19 00.42  1.3158 2.1974 144.4 22.4  28d  11
2019 11 13 17  03 52 07.252   -16 19 04.04  1.3158 2.1975 144.4 22.4  28d  11
2019 11 13 18  03 52 03.909   -16 19 07.61  1.3159 2.1976 144.4 22.4  28d  11
2019 11 13 19  03 52 00.565   -16 19 11.14  1.3160 2.1977 144.4 22.4  28d  11
2019 11 13 20  03 51 57.221   -16 19 14.62  1.3161 2.1978 144.4 22.4  28d  11
2019 11 13 21  03 51 53.877   -16 19 18.06  1.3162 2.1978 144.4 22.4  28d  11
2019 11 13 22  03 51 50.532   -16 19 21.46  1.3162 2.1979 144.4 22.4  28d  11
2019 11 13 23  03 51 47.186   -16 19 24.81  1.3163 2.1980 144.5 22.4  28d  11
2019 11 14 00  03 51 43.841   -16 19 28.11  1.3164 2.1981 144.5 22.4  28d  11
2019 11 14 01  03 51 40.494   -16 19 31.37  1.3165 2.1982 144.5 22.4  28d  11
2019 11 14 02  03 51 37.148   -16 19 34.58  1.3166 2.1983 144.5 22.4  28d  11
2019 11 14 03  03 51 33.801   -16 19 37.74  1.3167 2.1984 144.5 22.4  29d  11
2019 11 14 04  03 51 30.453   -16 19 40.87  1.3167 2.1985 144.5 22.4  29d  11
2019 11 14 05  03 51 27.106   -16 19 43.94  1.3168 2.1986 144.5 22.4  29d  11
2019 11 14 06  03 51 23.758   -16 19 46.97  1.3169 2.1986 144.5 22.4  29d  11
2019 11 14 07  03 51 20.409   -16 19 49.96  1.3170 2.1987 144.5 22.4  29d  11
2019 11 14 08  03 51 17.060   -16 19 52.90  1.3171 2.1988 144.5 22.4  29d  11
2019 11 14 09  03 51 13.711   -16 19 55.79  1.3172 2.1989 144.5 22.4  29d  11
2019 11 14 10  03 51 10.362   -16 19 58.64  1.3173 2.1990 144.5 22.4  29d  11
2019 11 14 11  03 51 07.012   -16 20 01.44  1.3174 2.1991 144.5 22.4  29d  11
2019 11 14 12  03 51 03.661   -16 20 04.20  1.3174 2.1992 144.5 22.4  29d  11
2019 11 14 13  03 51 00.311   -16 20 06.91  1.3175 2.1993 144.5 22.4  29d  11
2019 11 14 14  03 50 56.960   -16 20 09.58  1.3176 2.1994 144.5 22.4  29d  11
2019 11 14 15  03 50 53.609   -16 20 12.20  1.3177 2.1994 144.5 22.4  29d  11
2019 11 14 16  03 50 50.257   -16 20 14.78  1.3178 2.1995 144.5 22.4  29d  11
2019 11 14 17  03 50 46.906   -16 20 17.31  1.3179 2.1996 144.5 22.4  29d  11
2019 11 14 18  03 50 43.553   -16 20 19.79  1.3180 2.1997 144.5 22.4  29d  11
2019 11 14 19  03 50 40.201   -16 20 22.23  1.3181 2.1998 144.5 22.4  29d  11
2019 11 14 20  03 50 36.848   -16 20 24.63  1.3182 2.1999 144.5 22.4  29d  11
2019 11 14 21  03 50 33.496   -16 20 26.98  1.3183 2.2000 144.5 22.4  29d  11
2019 11 14 22  03 50 30.142   -16 20 29.28  1.3183 2.2001 144.5 22.4  29d  11
2019 11 14 23  03 50 26.789   -16 20 31.54  1.3184 2.2002 144.5 22.4  29d  11
2019 11 15 00  03 50 23.435   -16 20 33.75  1.3185 2.2002 144.5 22.4  29d  11
2019 11 15 01  03 50 20.081   -16 20 35.91  1.3186 2.2003 144.5 22.4  30d  11
2019 11 15 02  03 50 16.727   -16 20 38.03  1.3187 2.2004 144.5 22.4  30d  11
2019 11 15 03  03 50 13.373   -16 20 40.11  1.3188 2.2005 144.5 22.4  30d  11
2019 11 15 04  03 50 10.018   -16 20 42.14  1.3189 2.2006 144.5 22.4  30d  11
2019 11 15 05  03 50 06.664   -16 20 44.12  1.3190 2.2007 144.5 22.4  30d  11
2019 11 15 06  03 50 03.309   -16 20 46.06  1.3191 2.2008 144.5 22.4  30d  11
2019 11 15 07  03 49 59.953   -16 20 47.95  1.3192 2.2009 144.5 22.4  30d  11
2019 11 15 08  03 49 56.598   -16 20 49.80  1.3193 2.2010 144.5 22.4  30d  11
2019 11 15 09  03 49 53.242   -16 20 51.60  1.3194 2.2010 144.5 22.4  30d  11